User: anonymous   Login
Location: Mentone
(34.5413°N, 85.5351°W)
Time: 18:09:32
(UTC-06:00)
Language:

Cosmos 1703 - Orbit

View from above orbital plane
View from above orbital plane
View from above satellite
View from above satellite

Ground track
Ground track

The orbit data is extracted from the following two-line orbital elements,

1 16262U 85108A   17322.84251041  .00000806  00000-0  46953-4 0  9994
2 16262  82.4813  98.0469 0012703 102.6764 257.5887 15.10577983742247
Epoch (UTC): 18 November 2017 20:13:12
Eccentricity: 0.0012703
inclination: 82.4813°
perigee height: 525 km
apogee height: 543 km
right ascension of ascending node: 98.0469°
argument of perigee: 102.6764°
revolutions per day: 15.10577983
mean anomaly at epoch: 257.5887°
orbit number at epoch: 74224

The dashed part of the orbit path shows where the satellite is in the earth's shadow,  

DLR